Regional Weather Roundup
Issued by NWS

Home | Current Version | Previous Version | Graphics & Text | Print | Product List | Glossary Off
Versions: 1 2 3 4 5 6 7 8 9 10 11 12 13 14 15 16 17 18 19 20 21 22 23 24 25 26 27 28 29 30 31 32 33 34 35 36 37 38 39 40 41 42 43 44 45 46 47 48 49 50

742
ASUS43 KLSX 312307
RWRMO

WEATHER SUMMARY FOR MISSOURI
NATIONAL WEATHER SERVICE SPRINGFIELD MO
600 PM CDT WED AUG 31 2016

NOTE: "FAIR" INDICATES FEW OR NO CLOUDS BELOW 12,000 FEET WITH NO
       SIGNIFICANT WEATHER AND/OR OBSTRUCTIONS TO VISIBILITY.
       CURRENT SKY AND/OR WEATHER CONDITIONS ARE NOT AVAILABLE FOR
       CHILLICOTHE AND FARMINGTON.

MOZ001>031-035>038-043-044-053-054-010000-
...NORTHERN AND WESTERN MISSOURI...

CITY           SKY/WX    TMP DP  RH WIND       PRES   REMARKS
KANSAS CTY INT MOSUNNY   80  64  58 NE13      30.09S
KANSAS C DTWN  CLOUDY    80  66  62 NE8       30.07S
LEE`S SUMMIT   CLOUDY    79  68  69 NE10      30.08F
ST JOSEPH      MOSUNNY   76  60  57 NE6       30.10S
CHILLICOTHE      N/A     79  60  52 N7        30.10S
KIRKSVILLE     CLOUDY    76  64  66 N8        30.10S

$$
MOZ066>068-077>081-088>096-101>105-010000-
...SOUTHWEST MISSOURI...

CITY           SKY/WX    TMP DP  RH WIND       PRES   REMARKS
SPRINGFIELD    LGT RAIN  75  68  78 N9        30.05S
JOPLIN         CLOUDY    73  70  90 NE6       30.04F
BRANSON        PTSUNNY   81  72  74 N6        30.04S

$$
MOZ032>034-039>042-045>050-055>058-069>072-010000-
...CENTRAL MISSOURI...

CITY           SKY/WX    TMP DP  RH WIND       PRES   REMARKS
COLUMBIA       CLOUDY    76  74  93 W3        30.06R
JEFFERSON CITY LGT RAIN  77  71  82 CALM      30.04S
ROLLA          CLOUDY    75  71  87 N6        30.04F
SEDALIA        CLOUDY    76  70  82 SE8       30.08R
WHITEMAN AFB   MOSUNNY   80  73  80 N8        30.05F
OSAGE BEACH    CLOUDY    74  72  93 N3        30.06S

$$
MOZ051-052-059>065-010000-
...EAST CENTRAL MISSOURI...

CITY           SKY/WX    TMP DP  RH WIND       PRES   REMARKS
ST LOUIS INTL  CLOUDY    77  66  68 NE5       30.03S
SPIRIT OF STL  CLOUDY    78  67  68 NE9       30.01S
ST CHARLES     CLOUDY    76  66  71 W3        30.01F

$$
MOZ072>076-082>087-097>100-106>115-010000-
...SOUTH CENTRAL AND SOUTHEAST MISSOURI...

CITY           SKY/WX    TMP DP  RH WIND       PRES   REMARKS
CAPE GIRARDEAU MOSUNNY   83  70  64 N13G22    29.97R
FARMINGTON     CLOUDY    76  70  82 N7        30.04S
POPLAR BLUFF   MOSUNNY   85  71  63 N8        29.96R HX  90
WEST PLAINS    MOSUNNY   81  70  69 N6        30.03F

$$



USA.gov is the U.S. government's official web portal to all federal, state and local government web resources and services.